Torna al catalogo

DELTA 1 DEB

AttivoUNKNOWN
NORAD 9979·DEBRIS·🇺🇸 United States

Lanciato Nov 6, 1973 da Vandenberg Space Force Base

Loading…

Prossimi Passaggi (prossime 24 ore)

TLE

AggiornatoSource: Space-Track

Epoca: Sep 13, 2026, 13:35 UTC

1  9979U 73086GJ  26256.56634586 -.00000369  00000-0 -49536-2 0  9991
2  9979 101.9310 161.3833 0584551 195.9465 292.5005 11.50897801530082

Traccia DELTA 1 DEB in tempo reale con AllMySat

Download on the App Store